WetterOnline ( https://www.wetteronline.de )

Wetter aktuell Bretzfeld

Aktuelles Wetter: Öhringen (277m)

6-stündlich | Neueste Meldungen
Ortszeit Temperatur Wetter
So, 21.04. 20:00 3.4° C leichter Regen
So, 21.04. 14:00 6.7° C bedeckt
So, 21.04. 8:00 3.0° C leichter Regen
So, 21.04. 2:00 3.4° C bedeckt
Sa, 20.04. 20:00 4.9° C bedeckt
Sa, 20.04. 14:00 7.8° C bedeckt
Sa, 20.04. 8:00 3.8° C bedeckt
Sa, 20.04. 2:00 4.8° C bewölkt
Ortszeit Temperatur Wetter
Mo, 22.04. 1:00 2.9° C bedeckt
Mo, 22.04. 0:50 2.9° C bedeckt
Mo, 22.04. 0:40 3.1° C bedeckt
Mo, 22.04. 0:30 3.1° C bedeckt
Mo, 22.04. 0:20 3.1° C bedeckt
Mo, 22.04. 0:10 3.2° C bedeckt
Mo, 22.04. 0:00 3.2° C leichter Regen
So, 21.04. 23:30 3.3° C bedeckt
So, 21.04. 23:00 3.3° C leichter Regen
So, 21.04. 22:30 3.4° C leichter Regen
So, 21.04. 22:00 3.3° C Sprühregen
Ortszeit Relative Feuchte Sichtweite
So, 21.04. 20:00 89% 22 km
So, 21.04. 14:00 69% 55 km
So, 21.04. 8:00 91% 55 km
So, 21.04. 2:00 94% 23 km
Sa, 20.04. 20:00 86% 55 km
Sa, 20.04. 14:00 65% 60 km
Sa, 20.04. 8:00 87% 40 km
Sa, 20.04. 2:00 86% 45 km
Ortszeit Relative Feuchte Sichtweite
Mo, 22.04. 1:00 87% 50 km
Mo, 22.04. 0:50 87% -
Mo, 22.04. 0:40 87% -
Mo, 22.04. 0:30 87% 40 km
Mo, 22.04. 0:20 87% -
Mo, 22.04. 0:10 87% -
Mo, 22.04. 0:00 86% 35 km
So, 21.04. 23:30 85% 40 km
So, 21.04. 23:00 87% 30 km
So, 21.04. 22:30 89% 11 km
So, 21.04. 22:00 90% 14 km
Ortszeit Niederschlagsmenge Niederschlagsart
So, 21.04. 20:00 2 l/m2 in 12 Std. Regen
So, 21.04. 14:00 0.1 l/m2 in 6 Std. Regen
So, 21.04. 8:00 5 l/m2 in 12 Std. Regen
So, 21.04. 2:00 0.1 l/m2 in 6 Std. Regen
Sa, 20.04. 20:00 0.4 l/m2 in 12 Std. Regen
Sa, 20.04. 14:00 0.1 l/m2 in 6 Std. Regen
Sa, 20.04. 8:00 0.1 l/m2 in 12 Std. Regen
Sa, 20.04. 2:00 0.1 l/m2 in 6 Std. Regen
Ortszeit Niederschlagsmenge Niederschlagsart
Mo, 22.04. 1:00 <0.05 l/m2 in 1 Std. Regen
Mo, 22.04. 0:50 keine Meldung -
Mo, 22.04. 0:40 keine Meldung -
Mo, 22.04. 0:30 <0.05 l/m2 in 30 Min Schneeregen
Mo, 22.04. 0:20 keine Meldung -
Mo, 22.04. 0:10 keine Meldung -
Mo, 22.04. 0:00 0.1 l/m2 in 1 Std. Regen
So, 21.04. 23:30 0.1 l/m2 in 30 Min Schneeregen
So, 21.04. 23:00 0.2 l/m2 in 1 Std. Regen
So, 21.04. 22:30 <0.05 l/m2 in 30 Min -
So, 21.04. 22:00 <0.05 l/m2 in 1 Std. Regen
Ortszeit Stärke Spitze Richtung
km/h Bft. km/h Grad Sektor
So, 21.04. 20:00 17 3 31 40° NO
So, 21.04. 14:00 14 3 25 330° NW
So, 21.04. 8:00 11 2 43 320° NW
So, 21.04. 2:00 7 2 18 260° W
Sa, 20.04. 20:00 9 2 37 260° W
Sa, 20.04. 14:00 17 3 31 270° W
Sa, 20.04. 8:00 14 3 36 260° W
Sa, 20.04. 2:00 20 4 33 260° W
Ortszeit Stärke Spitze Richtung
km/h Bft. km/h Grad Sektor
Mo, 22.04. 1:00 4 1 11 40° NO
Mo, 22.04. 0:50 4 1 - 40° NO
Mo, 22.04. 0:40 4 1 - 60° NO
Mo, 22.04. 0:30 4 1 11 40° NO
Mo, 22.04. 0:20 4 1 - 40° NO
Mo, 22.04. 0:10 6 1 - 50° NO
Mo, 22.04. 0:00 7 2 20 50° NO
So, 21.04. 23:30 11 2 22 60° NO
So, 21.04. 23:00 11 2 29 50° NO
So, 21.04. 22:30 14 3 29 50° NO
So, 21.04. 22:00 9 2 26 40° NO
Ortszeit Untergrenze Bedeckung Gattung
total tief tief mittel hoch
So, 21.04. 20:00 480 m 8/8 8/8 - - -
So, 21.04. 14:00 720 m 8/8 8/8 - - -
So, 21.04. 8:00 360 m 8/8 8/8 - - -
So, 21.04. 2:00 270 m 8/8 8/8 - - -
Sa, 20.04. 20:00 600 m 8/8 8/8 - - -
Sa, 20.04. 14:00 780 m 8/8 8/8 - - -
Sa, 20.04. 8:00 690 m 8/8 8/8 - - -
Sa, 20.04. 2:00 840 m 7/8 7/8 - - -
Ortszeit Bedeckungsgrad in Achtel und Wolkenuntergrenze
Mo, 22.04. 1:00 4(1440m) 7(1800m) 8(2400m)
Mo, 22.04. 0:50 4(1440m) 7(1800m) 8(2400m)
Mo, 22.04. 0:40 8
Mo, 22.04. 0:30 2(1110m) 8(1500m) 8(1800m)
Mo, 22.04. 0:20 2(1110m) 8(1500m) 8(1800m)
Mo, 22.04. 0:10 8
Mo, 22.04. 0:00 2(1050m) 7(1410m) 8(2100m)
So, 21.04. 23:30 8(1260m)
So, 21.04. 23:00 8(1170m)
So, 21.04. 22:30 1(480m) 8(1080m)
So, 21.04. 22:00 3(420m) 7(750m) 8(1050m)
Ortszeit Luftdruck NN (hPa) Tendenz (hPa in 3 Std.)
So, 21.04. 20:00 1021 + 1,4
So, 21.04. 14:00 1018 0,0
So, 21.04. 8:00 1018 + 0,1
So, 21.04. 2:00 1020 - 1,4
Sa, 20.04. 20:00 1021 + 0,8
Sa, 20.04. 14:00 1020 + 1,1
Sa, 20.04. 8:00 1017 + 2,3
Sa, 20.04. 2:00 1013 + 0,9
Ortszeit Luftdruck NN (hPa) Tendenz (hPa in 3 Std.)
Mo, 22.04. 1:00 1023 + 0,3
Mo, 22.04. 0:50 1023 keine Meldung
Mo, 22.04. 0:40 1023 keine Meldung
Mo, 22.04. 0:30 1023 + 0,6
Mo, 22.04. 0:20 1023 keine Meldung
Mo, 22.04. 0:10 1023 keine Meldung
Mo, 22.04. 0:00 1023 + 0,9
So, 21.04. 23:30 1023 + 1,2
So, 21.04. 23:00 1023 + 1,4
So, 21.04. 22:30 1023 + 1,6
So, 21.04. 22:00 1023 + 1,9
Ortszeit Schneehöhe (cm)
So, 21.04. 20:00 0
So, 21.04. 14:00 0
So, 21.04. 8:00 0
So, 21.04. 2:00 0
Sa, 20.04. 20:00 0
Sa, 20.04. 14:00 0
Sa, 20.04. 8:00 0
Sa, 20.04. 2:00 0
Ortszeit Schneehöhe (cm)
Mo, 22.04. 1:00 0
Mo, 22.04. 0:50 0
Mo, 22.04. 0:40 -
Mo, 22.04. 0:30 0
Mo, 22.04. 0:20 0
Mo, 22.04. 0:10 -
Mo, 22.04. 0:00 0
So, 21.04. 23:30 0
So, 21.04. 23:00 0
So, 21.04. 22:30 0
So, 21.04. 22:00 0
Link zu dieser Seite / Seite empfehlen

Das Wetter in ...